When you browse on this site, cookies collect data to enhance your experience and personalize the content and advertising you see.
Visit our Privacy Policy to learn more. By continuing to use the site, you agree to this use of cookies and data.
  • In Deutschland
  • Länderverzeichnis
  • Für 7 Tage
  • Wassertemperatur
  • Wetterkarte
  • Widgets
  • user-avatar
    Anmelden

    Stündliche Wetter Elanskiy

    Heute, 16 Oktober, Mittwoch

    Zeit Temperatur Niederschläge Wind Luftdruck Luftfeuchtigkeit
    00:00 +3°C° 0 mm 2 m/S 744 mmHg 92%
    01:00 +2°C° 0 mm 2 m/S 744 mmHg 93%
    02:00 +1°C° 0 mm 3 m/S 744 mmHg 92%
    03:00 +1°C° 0 mm 3 m/S 745 mmHg 92%
    04:00 0°C° 0 mm 3 m/S 745 mmHg 91%
    05:00 0°C° 0 mm 3 m/S 745 mmHg 91%
    06:00 -1°C° 0 mm 4 m/S 746 mmHg 91%
    07:00 -1°C° 0 mm 4 m/S 746 mmHg 91%
    08:00 -1°C° 0 mm 4 m/S 746 mmHg 92%
    09:00 0°C° 0 mm 4 m/S 747 mmHg 94%
    10:00 0°C° 0 mm 4 m/S 747 mmHg 95%
    11:00 0°C° 0.2 mm 5 m/S 748 mmHg 95%
    12:00 0°C° 0.2 mm 5 m/S 748 mmHg 95%
    13:00 +1°C° 0.2 mm 6 m/S 748 mmHg 95%
    14:00 +1°C° 0 mm 5 m/S 749 mmHg 90%
    15:00 +1°C° 0 mm 5 m/S 749 mmHg 86%
    16:00 +1°C° 0 mm 5 m/S 750 mmHg 82%
    17:00 +1°C° 0 mm 5 m/S 751 mmHg 84%
    18:00 +1°C° 0 mm 4 m/S 751 mmHg 85%
    19:00 0°C° 0 mm 4 m/S 752 mmHg 86%
    20:00 0°C° 0 mm 4 m/S 752 mmHg 86%
    21:00 0°C° 0 mm 5 m/S 753 mmHg 87%
    22:00 0°C° 0 mm 5 m/S 753 mmHg 87%
    23:00 -1°C° 0 mm 5 m/S 753 mmHg 86%

    Morgen, 17 Oktober, Donnerstag

    Zeit Temperatur Niederschläge Wind Luftdruck Luftfeuchtigkeit
    00:00 -1°C° 0 mm 5 m/S 754 mmHg 86%
    01:00 -2°C° 0 mm 5 m/S 754 mmHg 85%
    02:00 -2°C° 0 mm 5 m/S 755 mmHg 85%
    03:00 -2°C° 0 mm 4 m/S 755 mmHg 84%
    04:00 -2°C° 0 mm 4 m/S 756 mmHg 84%
    05:00 -2°C° 0 mm 4 m/S 756 mmHg 84%
    06:00 -2°C° 0 mm 4 m/S 756 mmHg 84%
    07:00 -2°C° 0 mm 4 m/S 756 mmHg 84%
    08:00 -1°C° 0 mm 4 m/S 757 mmHg 80%
    09:00 0°C° 0 mm 4 m/S 757 mmHg 75%
    10:00 +1°C° 0 mm 4 m/S 757 mmHg 71%
    11:00 +1°C° 0 mm 4 m/S 757 mmHg 69%
    12:00 +1°C° 0 mm 4 m/S 757 mmHg 68%
    13:00 +1°C° 0 mm 4 m/S 757 mmHg 67%
    14:00 +1°C° 0 mm 4 m/S 757 mmHg 68%
    15:00 +2°C° 0 mm 3 m/S 757 mmHg 69%
    16:00 +1°C° 0 mm 3 m/S 758 mmHg 70%
    17:00 +1°C° 0 mm 3 m/S 757 mmHg 73%
    18:00 +1°C° 0 mm 2 m/S 757 mmHg 75%
    19:00 +1°C° 0 mm 2 m/S 757 mmHg 78%
    20:00 +1°C° 0 mm 2 m/S 757 mmHg 81%
    21:00 +1°C° 0 mm 2 m/S 757 mmHg 85%
    22:00 -1°C° 0 mm 2 m/S 756 mmHg 88%
    23:00 -1°C° 0.3 mm 2 m/S 756 mmHg 91%

    übermorgen, 18 Oktober, Freitag

    Zeit Temperatur Niederschläge Wind Luftdruck Luftfeuchtigkeit
    00:00 -1°C° 0.3 mm 2 m/S 755 mmHg 94%
    01:00 -1°C° 0.3 mm 2 m/S 755 mmHg 97%
    02:00 -1°C° 0.3 mm 2 m/S 755 mmHg 97%
    03:00 -1°C° 0.3 mm 2 m/S 754 mmHg 97%
    04:00 -1°C° 0.3 mm 2 m/S 754 mmHg 97%
    05:00 -1°C° 0 mm 2 m/S 754 mmHg 97%
    06:00 +1°C° 0 mm 2 m/S 753 mmHg 97%
    07:00 +2°C° 0 mm 1 m/S 753 mmHg 97%
    08:00 +2°C° 0 mm 1 m/S 753 mmHg 97%
    09:00 +1°C° 0 mm 2 m/S 753 mmHg 97%
    10:00 +1°C° 0 mm 2 m/S 753 mmHg 97%
    11:00 +1°C° 0 mm 2 m/S 752 mmHg 97%
    12:00 +1°C° 0 mm 2 m/S 752 mmHg 96%
    13:00 0°C° 0 mm 3 m/S 752 mmHg 96%
    14:00 0°C° 0.2 mm 3 m/S 752 mmHg 97%
    15:00 0°C° 0.2 mm 3 m/S 752 mmHg 97%
    16:00 -1°C° 0.2 mm 4 m/S 753 mmHg 97%
    17:00 -1°C° 0.1 mm 4 m/S 753 mmHg 97%
    18:00 -1°C° 0.1 mm 4 m/S 753 mmHg 96%
    19:00 -1°C° 0.1 mm 4 m/S 754 mmHg 96%
    20:00 -1°C° 0 mm 4 m/S 754 mmHg 93%
    21:00 -2°C° 0 mm 4 m/S 755 mmHg 91%
    22:00 -2°C° 0 mm 4 m/S 755 mmHg 88%
    23:00 -2°C° 0 mm 4 m/S 756 mmHg 88%

    19 Oktober, Samstag

    Zeit Temperatur Niederschläge Wind Luftdruck Luftfeuchtigkeit
    00:00 -3°C° 0 mm 4 m/S 756 mmHg 89%
    01:00 -4°C° 0 mm 4 m/S 757 mmHg 89%
    02:00 -4°C° 0 mm 4 m/S 757 mmHg 87%
    03:00 -4°C° 0 mm 4 m/S 758 mmHg 85%
    04:00 -4°C° 0 mm 4 m/S 759 mmHg 83%
    05:00 -5°C° 0 mm 4 m/S 759 mmHg 84%
    06:00 -5°C° 0 mm 3 m/S 760 mmHg 85%
    07:00 -6°C° 0 mm 3 m/S 760 mmHg 86%
    08:00 -5°C° 0 mm 3 m/S 761 mmHg 82%
    09:00 -4°C° 0 mm 3 m/S 761 mmHg 77%
    10:00 -2°C° 0 mm 3 m/S 761 mmHg 72%
    11:00 -2°C° 0 mm 3 m/S 762 mmHg 69%
    12:00 -1°C° 0 mm 3 m/S 762 mmHg 66%
    13:00 -1°C° 0 mm 3 m/S 762 mmHg 64%
    14:00 -1°C° 0 mm 2 m/S 762 mmHg 67%
    15:00 -2°C° 0 mm 2 m/S 763 mmHg 69%
    16:00 0°C° 0 mm 1 m/S 763 mmHg 72%
    17:00 -1°C° 0 mm 1 m/S 763 mmHg 74%
    18:00 -1°C° 0 mm 1 m/S 764 mmHg 76%
    19:00 -2°C° 0 mm 1 m/S 764 mmHg 77%
    20:00 -2°C° 0 mm 1 m/S 764 mmHg 77%
    21:00 -2°C° 0 mm 1 m/S 764 mmHg 77%
    22:00 -3°C° 0 mm 0 m/S 765 mmHg 77%
    23:00 -2°C° 0 mm 1 m/S 765 mmHg 78%

    20 Oktober, Sonntag

    Zeit Temperatur Niederschläge Wind Luftdruck Luftfeuchtigkeit
    00:00 -2°C° 0 mm 1 m/S 765 mmHg 78%
    01:00 -2°C° 0 mm 1 m/S 764 mmHg 79%
    02:00 -2°C° 0 mm 1 m/S 764 mmHg 80%
    03:00 -4°C° 0 mm 2 m/S 764 mmHg 82%
    04:00 -4°C° 0 mm 2 m/S 764 mmHg 83%
    05:00 -4°C° 0 mm 2 m/S 764 mmHg 84%
    06:00 -4°C° 0 mm 2 m/S 764 mmHg 84%
    07:00 -5°C° 0 mm 3 m/S 764 mmHg 85%
    08:00 -4°C° 0 mm 3 m/S 764 mmHg 79%
    09:00 -3°C° 0 mm 4 m/S 764 mmHg 74%
    10:00 -2°C° 0 mm 5 m/S 764 mmHg 68%
    11:00 -2°C° 0 mm 5 m/S 763 mmHg 67%
    12:00 -1°C° 0 mm 5 m/S 763 mmHg 65%
    13:00 0°C° 0 mm 5 m/S 762 mmHg 64%
    14:00 -1°C° 0 mm 5 m/S 762 mmHg 68%
    15:00 -1°C° 0 mm 4 m/S 762 mmHg 71%
    16:00 -2°C° 0 mm 4 m/S 761 mmHg 75%
    17:00 -2°C° 0 mm 4 m/S 761 mmHg 77%
    18:00 -2°C° 0 mm 4 m/S 761 mmHg 78%
    19:00 -2°C° 0 mm 4 m/S 761 mmHg 80%
    20:00 -2°C° 0 mm 4 m/S 760 mmHg 81%
    21:00 -2°C° 0 mm 4 m/S 760 mmHg 82%
    22:00 -2°C° 0 mm 4 m/S 759 mmHg 83%
    23:00 -2°C° 0 mm 4 m/S 759 mmHg 83%

    21 Oktober, Montag

    Zeit Temperatur Niederschläge Wind Luftdruck Luftfeuchtigkeit
    00:00 -2°C° 0 mm 5 m/S 759 mmHg 82%
    01:00 -1°C° 0 mm 5 m/S 758 mmHg 81%
    02:00 -2°C° 0.4 mm 5 m/S 758 mmHg 86%
    03:00 -2°C° 0.4 mm 5 m/S 757 mmHg 91%
    04:00 -2°C° 0.4 mm 5 m/S 757 mmHg 96%
    05:00 -1°C° 0.6 mm 5 m/S 757 mmHg 96%
    06:00 -1°C° 0.6 mm 4 m/S 757 mmHg 97%
    07:00 0°C° 0.6 mm 4 m/S 756 mmHg 97%
    08:00 0°C° 0.1 mm 4 m/S 756 mmHg 97%
    09:00 +1°C° 0.1 mm 3 m/S 756 mmHg 97%
    10:00 +2°C° 0.1 mm 3 m/S 757 mmHg 96%
    11:00 +4°C° 0 mm 2 m/S 757 mmHg 93%
    12:00 +5°C° 0 mm 2 m/S 757 mmHg 91%
    13:00 +5°C° 0 mm 2 m/S 757 mmHg 88%
    14:00 +5°C° 0 mm 2 m/S 758 mmHg 89%
    15:00 +4°C° 0 mm 2 m/S 758 mmHg 91%
    16:00 +3°C° 0 mm 2 m/S 758 mmHg 93%
    17:00 +3°C° 0 mm 2 m/S 758 mmHg 92%
    18:00 +3°C° 0 mm 1 m/S 758 mmHg 92%
    19:00 +3°C° 0 mm 1 m/S 759 mmHg 91%
    20:00 +3°C° 0 mm 1 m/S 759 mmHg 91%
    21:00 +3°C° 0 mm 1 m/S 759 mmHg 91%
    22:00 +3°C° 0 mm 1 m/S 759 mmHg 91%
    23:00 +3°C° 0 mm 1 m/S 758 mmHg 91%
    Mehr zeigen